MSR68 HECA-HELX

Flight info

Callsign MSR68
Flight time N/A
Altitude 31000
Route HECA/05C CVO A727 LXR
Aircraft A320/M-SDE3FGHIRWY/LB1

Departure

Time N/A
Airport Cairo International Airport (HECA)

Arrival

Time 2026-05-07 14:27
Airport Luxor International Airport (HELX)
Time Latitude Longitude Altitude Speed Heading
2026-05-07 14:21 25.48133 32.59201 3108 ft 207 kts 67°
2026-05-07 14:22 25.48707 32.60638 2999 ft 204 kts 57°
2026-05-07 14:22 25.49435 32.61962 3009 ft 201 kts 45°
2026-05-07 14:22 25.50473 32.62940 2998 ft 194 kts 24°
2026-05-07 14:22 25.51706 32.63530 3022 ft 191 kts 19°
2026-05-07 14:23 25.52884 32.64076 2922 ft 178 kts 19°
2026-05-07 14:23 25.54015 32.64599 2718 ft 175 kts 18°
2026-05-07 14:23 25.55125 32.65112 2513 ft 171 kts 18°
2026-05-07 14:23 25.56197 32.65607 2301 ft 163 kts 18°
2026-05-07 14:24 25.57212 32.66076 2089 ft 152 kts 18°
2026-05-07 14:24 25.58151 32.66510 1924 ft 143 kts 17°
2026-05-07 14:24 25.59061 32.66930 1753 ft 140 kts 17°
2026-05-07 14:24 25.59955 32.67342 1557 ft 139 kts 17°
2026-05-07 14:25 25.60843 32.67752 1376 ft 141 kts 18°
2026-05-07 14:25 25.61746 32.68169 1197 ft 140 kts 18°
2026-05-07 14:25 25.62644 32.68583 1014 ft 143 kts 19°
2026-05-07 14:25 25.63566 32.69010 830 ft 144 kts 17°
2026-05-07 14:26 25.64506 32.69441 657 ft 145 kts 21°
2026-05-07 14:26 25.65446 32.69877 481 ft 147 kts 20°
2026-05-07 14:26 25.66371 32.70320 334 ft 138 kts 18°
2026-05-07 14:26 25.67119 32.70649 327 ft 92 kts 23°
2026-05-07 14:27 25.67545 32.70842 332 ft 38 kts 23°
2026-05-07 14:27 25.67734 32.70921 334 ft 17 kts
2026-05-07 14:27 25.67803 32.70821 331 ft 17 kts 272°
2026-05-07 14:27 25.67714 32.70739 332 ft 18 kts 194°
2026-05-07 14:28 25.67615 32.70696 332 ft 13 kts 201°
2026-05-07 14:28 25.67538 32.70662 332 ft 11 kts 201°
2026-05-07 14:28 25.67473 32.70629 331 ft 9 kts 224°
2026-05-07 14:28 25.67471 32.70562 330 ft 9 kts 287°
2026-05-07 14:29 25.67465 32.70506 329 ft 7 kts 225°
2026-05-07 14:29 25.67424 32.70479 332 ft 6 kts 206°
2026-05-07 14:29 25.67389 32.70459 329 ft 5 kts 206°
2026-05-07 14:29 25.67384 32.70442 330 ft 2 kts 264°
2026-05-07 14:30 25.67383 32.70425 330 ft 4 kts 276°
2026-05-07 14:30 25.67394 32.70397 330 ft 1 kts 303°